Back to catalog

STARLINK-34255

AliveCommunicationsVLEO
NORAD 65417·PAYLOAD·🇺🇸 United States

Launched Aug 31, 2025 from Cape Canaveral Space Force Station

Loading…

Next Passes (next 24 hours)

TLE

FreshSource: CelesTrak SupGP

Epoch: Sep 14, 2026, 23:07 UTC

1 65417C 25192P   26257.96368056  .00046104  00000+0  13625-2 0  2577
2 65417  53.1574  71.2441 0001113  81.6592 159.9551 15.34360853    10

Track STARLINK-34255 in real time with AllMySat

Download on the App Store